Flag for Australia Weather past 2 weeks in Sydney, New South Wales, Australia

Now
77 °F

Scattered clouds.


Feels Like: 79 °F
Forecast: 69 / 83 °F
Wind: 12 mph from Northeast

Location: Sydney Airport

Current Time: Dec 22, 2014 at 9:25:57 AM

Latest Report: Dec 22, 2014 at 8:30 AM


Visibility: N/A

Pressure: 30.01 "Hg

Humidity: 61%

Dew point: 63 °F

Location of SydneyLocation

Historic Weather in Sydney — Graph

°F

Sydney temperature yesterday

Maximum temperature yesterday: 81 °F (at 1:30 PM)
Minimum temperature yesterday: 63 °F (at 5:30 AM)
Average temperature yesterday: 73 °F

Past Weeks' High & Low Weather Summary

 TemperatureHumidityPressure
High91 °F (Dec 8, 12:45 PM)100% (Dec 7, 5:51 PM)30.09 "Hg (Dec 7, 5:51 PM)
Low61 °F (Dec 14, 4:00 AM)31% (Dec 8, 6:00 PM)29.42 "Hg (Dec 16, 5:00 PM)
Average71 °F67%29.86 "Hg
* Reported Dec 7 8:00 AM — Dec 22 8:00 AM, Sydney, Weather by CustomWeather, © 2014

Note: Actual official high and low records may vary slightly from our data, if they occured in-between our weather recording intervals... More about our weather records

Advertising

Sydney weather history for previous 24 hours

 ConditionsComfort  
Time TempWeatherWind HumidityBarometerVisibility
8:00 AM
Dec 22
75 °FScattered clouds.9 mph65%30.01 "HgN/A
7:30 AM73 °FScattered clouds.12 mph69%30.01 "HgN/A
7:00 AM73 °FScattered clouds.13 mph74%30.01 "HgN/A
6:30 AM72 °FScattered clouds.9 mph78%29.98 "HgN/A
6:00 AM70 °FSunny.6 mph83%29.98 "Hg10 mi
5:30 AM70 °FClear.10 mph78%29.95 "Hg10 mi
5:00 AM70 °FClear.9 mph78%29.95 "Hg10 mi
4:30 AM70 °FClear.9 mph83%29.95 "Hg10 mi
4:00 AM70 °FClear.9 mph83%29.95 "Hg10 mi
3:30 AM70 °FClear.9 mph83%29.95 "Hg10 mi
3:00 AM70 °FClear.8 mph83%29.98 "Hg10 mi
2:30 AM70 °FClear.10 mph83%29.98 "Hg10 mi
2:00 AM72 °FClear.9 mph78%29.98 "Hg10 mi
1:30 AM72 °FPassing clouds.13 mph78%29.98 "HgN/A
1:00 AM72 °FPassing clouds.12 mph78%29.98 "HgN/A
12:30 AM72 °FPassing clouds.16 mph78%30.01 "HgN/A
12:00 AM72 °FPassing clouds.17 mph78%30.01 "HgN/A
11:30 PM
Dec 21
73 °FPassing clouds.17 mph74%30.01 "HgN/A
11:00 PM73 °FPassing clouds.17 mph74%30.01 "HgN/A
10:00 PM73 °FPassing clouds.16 mph74%30.01 "HgN/A
9:30 PM73 °FPassing clouds.18 mph74%30.01 "HgN/A
9:00 PM73 °FPassing clouds.17 mph74%30.01 "HgN/A
8:30 PM73 °FPassing clouds.22 mph74%29.98 "HgN/A
7:30 PM75 °FPassing clouds.25 mph65%29.98 "HgN/A
7:00 PM77 °FScattered clouds.26 mph61%29.95 "HgN/A
6:30 PM77 °FScattered clouds.24 mph61%29.95 "HgN/A
6:00 PM77 °FScattered clouds.23 mph61%29.95 "HgN/A
5:30 PM77 °FPassing clouds.25 mph57%29.95 "HgN/A
5:00 PM81 °FPassing clouds.24 mph51%29.98 "HgN/A
4:30 PM79 °FPassing clouds.23 mph54%29.98 "HgN/A
4:00 PM79 °FPassing clouds.23 mph54%29.98 "HgN/A
3:30 PM79 °FPassing clouds.23 mph51%29.98 "HgN/A
3:00 PM81 °FPassing clouds.22 mph48%29.98 "HgN/A
2:30 PM81 °FPassing clouds.20 mph48%30.01 "HgN/A
2:00 PM81 °FPassing clouds.21 mph48%30.01 "HgN/A
1:30 PM81 °FPassing clouds.17 mph48%30.04 "HgN/A
1:00 PM79 °FPassing clouds.17 mph51%30.04 "HgN/A
12:00 PM77 °FPassing clouds.17 mph51%30.07 "HgN/A
11:00 AM79 °FScattered clouds.14 mph51%30.07 "HgN/A
10:30 AM77 °FScattered clouds.15 mph54%30.07 "HgN/A
10:00 AM75 °FPartly sunny.12 mph57%30.07 "HgN/A
9:30 AM75 °FScattered clouds.10 mph54%30.07 "HgN/A
9:00 AM73 °FPassing clouds.6 mph61%30.07 "HgN/A
Weather by CustomWeather, © 2014

See weather overviewHow to use our weather pages